STARLINK-3896, 52456

Orbit data source: Space-Track

STARLINK-3896, 52456 is a payload satellite owned by SpaceX/Seattle (US) in LEO that was launched on Fri, 06 May 2022 UTC via an FALCON 9 launch vehicle from the Air Force Eastern Test Range (AFETR). Payload-class satellites include a variety of spacecraft equipped with specific instruments for various scientific and technological missions. These include communications satellites like Starlink; space stations such as the ISS; scientific satellites like the Hubble; Earth observation satellites from companies like Planet Labs, Umbra, and HawkEye 360; GPS; miniature CubeSats for education and research; and military/defense satellites.

Loading next visibility...
Identifier
52456, 2022-049F
Orbit
LEO
Country
Flag of USUS
Related business
Manufacturer
SpaceX/Seattle
Mission
Operational spacecraft
Bus & Motor
STARLINK, Unknown motor
Mass
297 kg wet, ~220 kg dry
Launch date (UTC)
2022-05-06 (4 years ago)
Launch vehicle
FALCON 9
Launch site
Air Force Eastern Test Range (AFETR)
Object type
Payload
Rocket body
Debris
Shape & HBR
Unknown shape, 10.1 m
Radar Cross Section
Large (>1 m²)

Expand to show TLE details & history
Last TLE update: 19 hours ago

TLE from 19 hours ago
0 STARLINK-3896
1 52456U 22049F   25346.72494103  .00007860  00000-0  51119-3 0  9990
2 52456  53.2169  99.5203 0000934  73.0644 287.0451 15.08852113198984
Epoch: 2025-12-12T17:23Z
TLE epoch observation values (Epoch: 2025-12-12T17:23:54.904Z)
Latitude
0.00004°
Longitude
116.87911°
Altitude
540.414 km
Speed
7.593 km/s
True Right ascension
06h 38m 04s
True Declination
0° 00' 00"
Sunlit
Object was in full shadow at epoch
Visualization orbit readout
Latitude
Unknown
Longitude
Unknown
Altitude
Unknown
Speed
Unknown
Apparent Right ascension
Unknown
Apparent Declination
Unknown
Sunlit
N/A
Visualization observer readout
Local Sidereal Time
11:00:57
Azimuth
Unknown
Elevation
Unknown
Doppler factor
Unknown
Orbital elements
Apogee altitude
540.598 km
Perigee altitude
539.305 km
Semi-major axis
6,918.088 km
Eccentricity
0.00009
Inclination
53.2169°
RAAN
99.5203°
Arg. of periapsis
73.0644°
True anomaly
287.03487°
Mean anomaly
287.0451°
Eccentric anomaly
287.03998°
Mean motion
3.77193 °/min
Orbital period
95.44 mins
BSTAR
0.00051119
Loading maneuver chart data...
Computing Atmospheric mass density...
Loading historical data...
Loading historical data...
Loading historical data...
Loading historical data...
Loading historical data...
Loading historical data...
Loading historical data...

Documentation

Showing up to 5 results
|